Location: Boley
(53.1150°N, 8.2269°W)
Time: 08:23:59
(UTC+00:00)

Daily predictions for brighter satellites

Satellite Brightness Start Highest point End
(mag) Time Altitude Azimuth Time Altitude Azimuth Time Altitude Azimuth
Ariane Rocket 3.9 20:59:59 10° SE 21:04:35 37° ENE 21:09:13 10° N
Cosmos 2278 3.9 21:00:38 10° NNW 21:06:22 68° NE 21:12:03 10° SE
Spot 2 Rocket 3.5 21:04:45 10° SSE 21:09:46 87° ENE 21:14:51 10° NNW
SL-16 R/B 2.3 21:04:43 10° NNW 21:10:26 86° NE 21:16:07 10° SSE
ERS-1 Rocket 3.9 21:07:59 10° S 21:12:50 48° W 21:17:42 10° NNW
SPOT 3 Rocket 3.9 21:10:07 10° SE 21:15:06 54° ENE 21:20:07 10° N
Cosmos 1607 4.1 21:09:14 10° SW 21:15:26 86° NW 21:21:46 10° NE
USA 186 1.3 21:13:35 10° SSE 21:16:18 81° ENE 21:19:06 10° NNW
USA 290 4.3 21:18:23 10° SE 21:19:40 12° E 21:20:57 10° ENE
CZ-4 R/B 3.5 21:17:38 10° SW 21:20:28 21° W 21:23:19 10° NW
MOS 1-B 4.5 21:14:57 10° SSE 21:20:46 85° WSW 21:26:37 10° NNW
Cosmos 2228 3.3 21:19:08 10° SSW 21:23:13 68° WNW 21:27:20 10° N
ISS -3.8 21:20:20 10° W 21:23:40 69° S 21:27:00 10° E
Cosmos 1980 Rocket 4.3 21:19:36 10° NW 21:23:55 23° WSW 21:28:14 10° SSW
Cosmos 1933 3.7 21:20:51 10° SSE 21:24:25 41° E 21:28:02 10° NNE
Cosmos 1461 2.9 21:21:52 10° SSW 21:25:22 42° SE 21:28:52 10° NE
SL-08 R/B 3.3 21:20:36 10° NNE 21:25:28 87° ESE 21:30:13 10° SSW
BREEZE-M DEB (TANK) 2.2 21:23:07 10° WSW 21:26:13 31° S 21:28:07 10° ESE
NOSS 3 (A) 3.9 21:24:33 10° NW 21:26:43 79° SW 21:29:11 12° SE
CZ-4B R/B 3.7 21:23:27 10° SE 21:28:07 55° ENE 21:32:53 10° N
Cosmos 1455 Rocket 4.4 21:24:39 10° SW 21:28:50 43° WNW 21:33:02 10° N
Cosmos 2061 Rocket 4.1 21:23:09 10° S 21:29:24 89° E 21:35:46 10° N
COSMOS 2406 3.3 21:24:18 10° SSW 21:29:58 64° ESE 21:35:40 10° NE
Terra 3.2 21:27:49 10° SSW 21:32:07 35° W 21:36:27 10° NNW
Cosmos 1992 Rocket 4.0 21:26:58 10° SSW 21:32:11 87° ESE 21:37:26 10° NNE
Meteor 1-20 Rocket 4.3 21:29:27 10° NNW 21:35:04 86° W 21:40:46 10° S
Okean O Rocket 2.1 21:30:57 10° S 21:35:11 59° W 21:39:28 10° NNW
Cosmos 1777 Rocket 4.1 21:33:15 10° NNW 21:38:31 74° ENE 21:43:21 12° SSE
Cosmos 2333 Rocket 2.5 21:35:13 10° NW 21:40:53 68° WSW 21:46:30 10° SSE
Helios 1A Rocket 4.3 21:38:03 10° N 21:40:54 31° WNW 21:43:43 10° SW
Cosmos 1437 Rocket 2.5 21:38:14 10° S 21:41:46 69° E 21:45:22 10° NNE
Cosmos 1544 Rocket 3.5 21:38:08 10° S 21:42:28 84° ESE 21:46:49 10° NNE
Okean 1-7 Rocket 3.8 21:42:00 10° N 21:46:26 57° ENE 21:50:19 13° SSE
Cosmos 1503 Rocket 4.1 21:43:23 10° NNW 21:48:35 70° ENE 21:53:04 14° SE
Cosmos 2360 Rocket 2.2 21:45:00 10° NNW 21:50:43 90° WSW 21:55:44 14° SSE
NOSS 3-3 (A) 4.0 21:48:17 10° SW 21:53:40 79° NW 22:00:15 10° NE
CZ-2C R/B 2.1 21:52:45 17° SSE 21:54:38 55° ENE 21:57:23 10° N
Okean-O 3.8 21:53:28 10° SSW 21:57:33 38° W 22:01:41 10° NNW
Cosmos 1486 Rocket 4.2 21:54:16 10° NNW 21:59:31 73° WSW 22:04:10 13° SSE
Cosmos 2333 4.3 21:55:07 10° NNW 22:00:52 89° WSW 22:05:42 15° SSE
Cosmos 1891 Rocket 4.5 21:56:17 10° S 22:02:23 90° W 22:08:28 10° N
Cosmos 2219 Rocket 2.3 21:57:44 10° NNW 22:03:25 76° NE 22:08:05 16° SE
Cosmos 1354 Rocket 4.2 21:58:22 10° NNW 22:03:37 66° ENE 22:07:46 16° SE
Cosmos 1805 2.9 22:03:45 10° NNW 22:07:00 70° W 22:09:31 16° S
USA 306 1.4 22:07:38 10° W 22:10:20 63° N 22:11:19 22° ENE
Cosmos 1825 Rocket 3.5 22:06:06 10° N 22:10:28 80° ENE 22:13:51 17° SSE
Cosmos 540 Rocket 4.1 22:07:44 14° SSE 22:11:39 37° ESE 22:16:23 10° NE
IRS-1C Rocket 4.3 22:08:06 13° S 22:12:54 72° WSW 22:18:12 10° NNW
Cosmos 220 Rocket 3.8 22:09:52 10° SSW 22:13:56 88° WNW 22:18:04 10° NNE
Nadezhda 4 Rocket 4.0 22:08:31 10° N 22:14:41 89° E 22:20:00 14° S
Helios 1A 4.2 22:13:26 10° NE 22:16:34 22° E 22:18:07 18° SE
Cosmos 1953 Rocket 3.8 22:12:58 10° N 22:17:16 57° ENE 22:20:10 20° SSE
RESURS DK-1 3.6 22:13:58 10° NNW 22:17:36 32° NE 22:20:45 13° ESE
Meteor 2-10 4.4 22:13:13 10° NNW 22:18:58 78° W 22:23:48 15° S
Aureole 1 Rocket 4.2 22:13:42 10° NNW 22:19:17 63° ENE 22:24:34 17° SE
Cosmos 1602 Rocket 4.5 22:17:34 10° NNW 22:21:41 44° W 22:25:44 10° SSW
Cosmos 2322 Rocket 2.7 22:17:39 10° NW 22:23:10 53° WSW 22:27:37 16° S
Cosmos 1707 3.2 22:23:33 22° ESE 22:24:10 24° E 22:26:33 10° NE
NOSS 3-3 (C) 4.4 22:20:56 10° WSW 22:26:23 65° NW 22:33:05 10° NE
CZ-4B R/B 3.9 22:24:40 11° SSW 22:27:31 31° W 22:30:41 10° NNW
TSX-5 4.0 22:24:57 10° NNW 22:27:58 44° NE 22:29:55 20° ESE
Cosmos 2082 Rocket 4.0 22:25:04 10° WSW 22:30:17 35° NW 22:35:31 10° NNE
Cosmos 2195 Rocket 4.5 22:26:40 10° N 22:32:56 85° E 22:37:38 18° SSE
Cosmos 2058 Rocket 3.8 22:30:59 21° SE 22:33:14 37° E 22:37:14 10° NNE
Cosmos 1076 Rocket 3.5 22:29:51 10° NNW 22:34:07 82° W 22:36:55 21° S
Cosmos 2098 Rocket 3.3 22:30:19 10° SSW 22:34:56 65° WNW 22:38:55 10° N
NOSS 3-4 (A) 4.4 22:30:31 10° NW 22:36:52 46° SW 22:42:31 17° S
Cosmos 2026 Rocket 4.1 22:30:31 10° N 22:36:57 79° ENE 22:41:40 19° SSE
Cosmos 44 3.5 22:31:58 10° NW 22:37:26 83° SW 22:41:01 21° SE
NOSS 3-4 (C) 4.4 22:31:09 10° NW 22:37:31 46° SW 22:43:10 17° S
Cosmos 2237 Rocket 3.6 22:36:31 10° NNW 22:41:39 33° NE 22:46:43 10° ESE
Ariane Rocket 3.9 22:39:06 12° SSW 22:43:25 41° W 22:48:15 10° NNW
CZ-4C R/B 4.1 22:42:43 10° WNW 22:47:21 33° N 22:53:14 10° NE
Cosmos 1470 3.5 22:45:04 10° N 22:48:03 30° ENE 22:49:19 23° ESE
ATLAS 2AS CENTAUR R/B 4.4 22:42:43 10° WNW 22:48:52 34° N 22:55:00 10° ENE
USA 290 2.7 22:50:30 12° SW 22:53:19 57° WNW 22:56:27 10° NNE
SL-16 R/B 4.1 22:49:47 10° NW 22:53:49 20° W 22:57:51 10° SSW
ARIANE 5 R/B 3.6 22:52:41 19° ESE 22:55:19 37° ENE 22:59:27 10° N
COSMOS 2428 2.9 22:49:57 10° NNW 22:55:39 68° NE 22:59:35 20° SE
Cosmos 1763 Rocket 3.5 22:50:42 11° SSW 22:55:52 87° ESE 23:01:10 10° NNE
Meteor 1-26 Rocket 4.2 22:52:00 19° S 22:56:01 74° E 23:01:45 10° NNE
ALOS 2 3.8 22:54:46 18° ESE 22:57:24 32° ENE 23:01:20 10° N
Cosmos 1606 Rocket 4.2 22:54:10 11° SSW 22:58:13 51° WNW 23:02:26 10° N
Helios 1B rocket 2.2 22:58:18 31° SE 22:59:47 62° ENE 23:03:16 10° N
ISS -3.5 22:57:04 10° W 23:00:18 48° SSW 23:01:11 37° SSE
Cosmos 1898 Rocket 3.6 22:56:10 10° NNW 23:01:21 69° ENE 23:04:34 23° SE
Cosmos 1461 4.4 22:58:19 10° WSW 23:01:43 34° NW 23:05:06 10° NNE
Okean 1 3.9 22:59:53 15° SW 23:02:37 46° WNW 23:06:07 10° N
Cosmos 1726 Rocket 3.9 23:02:43 16° SSW 23:05:48 55° WNW 23:09:48 10° N
Meteor 2-2 Rocket 4.2 23:05:01 21° S 23:08:57 78° E 23:14:47 10° NNE
Cosmos 1536 2.6 23:06:14 10° NNW 23:09:55 74° W 23:11:30 32° S
IKONOS-2 4.3 23:07:07 10° NNE 23:11:16 82° ESE 23:13:29 27° S
CSL-04 DEB 4.1 23:10:19 34° SSE 23:11:45 73° ENE 23:15:25 10° NNW
Cosmos-2242 3.0 23:14:03 24° SSW 23:16:28 75° WNW 23:20:35 10° N
KORONAS-FOTON 3.3 23:17:08 39° S 23:18:17 82° E 23:21:43 10° NNE
Cosmos 2333 Rocket 4.4 23:21:25 10° WNW 23:24:08 14° W 23:26:51 10° SW
Cosmos 1092 Rocket 4.3 23:19:47 10° NNW 23:25:51 60° W 23:29:59 21° SSW
NOSS 0 Rocket 3.9 23:20:40 10° NNW 23:26:54 86° ENE 23:30:48 24° SE
Cosmos 1766 4.1 23:25:28 10° NNW 23:28:21 31° W 23:29:29 24° SW
Cosmos 841 Rocket 3.8 23:27:23 28° SSE 23:29:43 48° ESE 23:34:46 10° NE
Cosmos 2297 Rocket 3.3 23:27:59 23° SE 23:29:53 27° ESE 23:34:35 10° NE
Cosmos 1842 2.5 23:29:26 49° S 23:30:10 83° E 23:33:20 10° NNE
Cosmos 1975 2.5 23:28:35 10° N 23:32:17 78° E 23:33:29 40° SSE
Cosmos 2360 Rocket 4.1 23:30:04 10° WNW 23:33:56 19° W 23:37:28 11° SW
Meteor 1-14 Rocket 4.1 23:28:35 10° NNW 23:34:11 87° WSW 23:37:12 28° S
Spot 4 3.8 23:36:12 30° SSE 23:38:33 85° ENE 23:43:23 10° NNW
Cosmos 2322 3.9 23:33:40 10° NW 23:39:17 61° WSW 23:42:12 28° S
Cosmos 1271 Rocket 2.3 23:39:41 45° SSW 23:40:39 90° W 23:44:02 10° NNE
Cosmos 2221 2.5 23:39:35 36° SSE 23:41:08 64° E 23:45:18 10° NNE
Cosmos 1812 Rocket 3.9 23:39:58 32° SSE 23:41:37 50° E 23:45:55 10° NNE
ACS3 Solar Sail 3.8 23:39:23 10° NE 23:42:31 14° E 23:45:39 10° ESE
Cosmos 372 Rocket 4.5 23:37:59 10° NW 23:42:52 46° WSW 23:45:14 27° SSW
Meteor 2-6 Rocket 4.4 23:40:37 23° SSW 23:44:28 85° WNW 23:50:27 10° NNE
MetOp-A 4.4 23:42:38 23° SE 23:45:19 48° ENE 23:49:45 10° N
Cosmos 2219 Rocket 3.8 23:42:25 10° NW 23:46:48 24° WSW 23:49:46 16° SW
NOSS 8 (E) 4.2 23:46:00 10° NW 23:48:55 68° NE 23:49:44 42° ESE
Helios 1A 3.7 23:47:41 10° N 23:51:26 43° WNW 23:53:49 20° SW
RESURS DK-1 3.0 23:51:17 10° NW 23:55:00 38° WSW 23:55:58 33° SSW
Cosmos 1707 4.3 23:55:02 14° WSW 23:56:23 19° WNW 23:58:30 10° NNW
